Weather Roundup
Issued by NWS Chicago, IL

Home | Current Version | Previous Version | Text Only | Print | Product List | Glossary On
Versions: 1 2 3 4 5 6 7 8 9 10 11 12 13 14 15 16 17 18 19 20 21 22 23 24 25 26 27 28 29 30 31 32 33 34 35 36 37 38 39 40 41 42 43 44 45 46 47 48 49 50
000
NZUS59 KLOT 051212
HRRLOT

CHICAGO AREA WEATHER ROUNDUP
NATIONAL WEATHER SERVICE CHICAGO/ROMEOVILLE IL
700 AM CDT SAT SEP 05 2015

NOTE: "FAIR" INDICATES FEW OR NO CLOUDS BELOW 12,000 FEET WITH NO
SIGNIFICANT WEATHER AND/OR OBSTRUCTIONS TO VISIBILITY.

* THESE STATIONS ARE NOT UNDER NWS QUALITY CONTROL. THEY ALSO MAY NOT
  REPORT WEATHER SUCH AS PRECIPITATION OR FOG.

ILZ005-006-012>014-019>023-051300-
NORTHEAST ILLINOIS

CITY           SKY/WX    TMP DP  RH WIND       PRES   REMARKS
OHARE          MOCLDY    71  67  87 S5        30.07S
6HR MIN TEMP:  69; 6HR MAX TEMP:  72;

MIDWAY         MOCLDY    73  65  75 S8        30.08R
6HR MIN TEMP:  73; 6HR MAX TEMP:  75;

AURORA           N/A     70  66  87 SE7       30.09R
6HR MIN TEMP:  67; 6HR MAX TEMP:  71;

LANSING*       MOCLDY    70  65  84 SW7       30.10R THUNDER
JOLIET*        PTCLDY    69  68  96 CALM      30.09S
WAUKEGAN       MOCLDY    67  67 100 E5        30.07S FOG
6HR MIN TEMP:  64; 6HR MAX TEMP:  67;

DUPAGE AIRPORT PTCLDY    69  66  90 S6        30.08R
6HR MIN TEMP:  67; 6HR MAX TEMP:  71;

WHEELING       NOT AVBL
KANKAKEE*      TSTM      67  67  99 E13       30.14R
MORRIS*        PTCLDY    68  65  91 SE5       30.08R
LEWIS AIRPORT* PTCLDY    69  66  92 SW6       30.09S
NORTHERLY IS     N/A     72  65  78 S7          N/A
$$

WIZ051-052-058>065-066-070>072-051300-
SOUTHEAST WISCONSIN

CITY           SKY/WX    TMP DP  RH WIND       PRES   REMARKS
MILWAUKEE      CLOUDY    66  65  96 NE3       30.08S FOG
6HR MIN TEMP:  65; 6HR MAX TEMP:  67; 6HR PCP:  0.28;

KENOSHA*       FOG       66  65  96 NE3       30.09R VSB 1/4
RACINE*        CLOUDY    68  65  90 SE5       30.10S FOG
BURLINGTON     FOG       65  65  99 CALM      30.09R VSB 1/2
WAUKESHA       FOG       64  64 100 CALM      30.10R VSB 1/4
WEST BEND      MOCLDY    63  61  94 CALM      30.08S FOG
$$

INZ001>003-010>013-019-020-051300-
NORTHWEST INDIANA

CITY           SKY/WX    TMP DP  RH WIND       PRES   REMARKS
GARY*          MOCLDY    72  64  78 S8        30.10R
MICHIGAN CITY* NOT AVBL
RENSSELAER*    NOT AVBL
VALPARAISO     MOCLDY    68  65  90 S3        30.12R
$$

LMZ740>746-051300-
SOUTHERN LAKE MICHIGAN

STATION/POSITION TIME  SKY/WX   TEMP WIND        PRES    VSBY
                                AIR  DIR/SP/G
                 (UTC)          (F)  (DEG/KT/KT) (MB)    (MI)
HARRISON CRIB    1200            71  190/ 13/ 15   N/A
BURNHAM HARBOR   1200            72  230/  6/ 11   N/A
CALUMET HARBOR   1100            71  180/  7/ 10   N/A
BURNS HARBOR     1100            70  190/  9/ 11 1019.0S
MICHIGAN CITY    1100            71  150/ 11/ 14   N/A
$$

ABBREVIATIONS USED IN REMARKS
   TC - TEMPERATURE IN CELSIUS
  WCI - WIND CHILL INDEX
   HX - HEAT INDEX
  VSB - VISIBILITY
$$



USA.gov is the U.S. government's official web portal to all federal, state and local government web resources and services.